Weather in Bolshoe Ignatovo

Russia / Republic of Mordovia     55°00′58″N   45°34′20″E
temp.,
°C
wind,
m/s
gust,
m/s
humid.,
%
clouds,
%
prec.,
mm/h
press.,
hPa
HPBL,
m
3 march, wed
wed300:00−6wnw499625 0.0 1003191
03:00−5wnw5129653 0.1 1004332
06:00−5nw7119398 0.1 1005659
09:00−7nw7129299 0.2 1007596
12:00−6nw71191100 0.1 1008651
15:00−5nw71189100 0.2 1009671
18:00−5wnw61187100 0.1 1009797
21:00−8w5129396 0.1 1009304
4 march, thu
thu400:00−6wsw6139433 0.1 1006412
03:00−3wsw6139367 0.2 1005625
06:00−3wsw71393100 0.3 1001784
09:00−3sw81595100 0.7 999732
12:000wsw101697100 1.1 9961124
15:00+1w91594100 1.4 9971158
18:00−3w61479100 0.1 999512
21:00−5w4989100 0.1 1000256
5 march, fri
fri500:00−6w2393100 0.0 100069
03:00−6wnw2296100 0.1 100032
06:00−7nnw3596100 0.6 1000174
09:00−7n4795100 0.9 1002307
12:00−7n359388 0.1 1005301
15:00−7nnw349165 0.1 1008278
18:00−12w11930 0.0 100921
21:00−12ssw22880 0.0 101121
6 march, sat
sat600:00−12ssw339694 0.0 101157
03:00−11ssw359791 0.2 1011129
06:00−12wsw3596100 0.2 101192
09:00−9nw599598 0.4 1011356
12:00−9nw4793100 0.0 1012394
15:00−9nw4790100 0.1 1012654
18:00−14nw369597 0.1 1013128
21:00−17wnw339649 0.1 101424
7 march, sun
sun700:00−18w349846 0.0 101456
03:00−19wsw349958 0.0 101448
06:00−19sw3710033 0.0 1012120
09:00−14ssw6139180 0.1 1011363
12:00−9ssw81481100 0.0 1007757
15:00−7sw101791100 0.5 10031190
18:00−6sw81593100 0.8 9991085
21:00−5ssw81594100 2.3 9951040